User: anonymous   Login
Location: Unspecified
(0.0000°N, 0.0000°E)
Time: 08:58:07
(UTC+00:00)
Language:

STARLINK-4026 - Orbit

View from above orbital plane
View from above orbital plane
View from above satellite
View from above satellite

Ground track
Ground track

The orbit is defined by the following mean orbital elements,

1 52600U          26145.43173778 +.00000000 +00000-0 +13944-3 0 00008
2 52600  53.2160 294.6090 0001357  91.8876 268.2271 15.08833099    01
Epoch (UTC): 25 May 2026 10:21:42
Eccentricity: 0.0001357
inclination: 53.2160°
perigee height: 539 km
apogee height: 541 km
right ascension of ascending node: 294.6090°
argument of perigee: 91.8876°
revolutions per day: 15.08833099
mean anomaly at epoch: 268.2271°

The dashed part of the orbit path shows where the satellite is in the earth's shadow,  

DLR